Hawarden, United Kingdom

8:10 AM GMT on February 20, 2018 (GMT +0000)
Hawarden

Weather History for EGNR - October, 2012

Change the Weather History Date:

Saturday, October 6, 2012

  Actual Average (EGGP) Record (EGGP)
Temperature  
Mean Temperature 50 °F -  
Max Temperature 58 °F 54 °F 66 °F (2013)
Min Temperature 43 °F 44 °F 35 °F (1999)
Degree Days  
Heating Degree Days 14    
Moisture  
Dew Point 47 °F    
Average Humidity 76    
Maximum Humidity 100    
Minimum Humidity 54    
Precipitation  
Precipitation 0.00 in - - ()
Sea Level Pressure  
Sea Level Pressure 29.92 in    
Wind  
Wind Speed 5 mph ()    
Max Wind Speed 13 mph    
Max Gust Speed -    
Visibility 6.8 miles    
Events Rain    
Averages and records for this station are not official NWS values.
T = Trace of Precipitation, MM = Missing Value Source: Averaged Metar Reports

Daily Weather History Graph

Daily Weather History Graph

Search for Another Location

Airport or City:

Trip Planner

Search our weather history database for the weather conditions in past years. The results will help you decide how hot, cold, wet, or windy it might be!

Date:

Astronomy

Oct. 06, 2012 Rise Set
Actual Time 7:22 AM BST 6:36 PM BST
Civil Twilight 6:48 AM BST 7:10 PM BST
Nautical Twilight 6:07 AM BST 7:50 PM BST
Astronomical Twilight 5:27 AM BST 8:31 PM BST
Moon 9:59 PM BST (10/6) 1:46 PM BST (10/6)
Length of Visible Light 12h 22m
Length of Day
11h 13m
Waning Gibbous, 67% of the Moon is Illuminated
Oct 6
Waning Gibbous
Oct 8
Last Quarter
Oct 15
New
Oct 22
First Quarter
Oct 29
Full

Hourly Weather History & Observations

Time (BST) Temp. Dew Point Humidity Pressure Visibility Wind Dir Wind Speed Gust Speed Precip Events Conditions
12:50 AM 49 °F 44 °F 76% 29.80 in 28 mi WNW 4.6 mph - - Rain Rain
3:50 AM 47 °F 43 °F 82% 29.81 in 31 mi WSW 6.9 mph - - Rain Rain
6:50 AM 43 °F 40 °F 87% 29.84 in 28 mi Calm Calm - -  
8:20 AM 44.6 °F 44.6 °F 100% 29.86 in 6.2 mi Calm Calm - N/A   Partly Cloudy
8:50 AM 50.0 °F 46.4 °F 87% 29.89 in 6.2 mi Calm Calm - N/A   Partly Cloudy
9:20 AM 51.8 °F 46.4 °F 82% 29.89 in 6.2 mi Calm Calm - N/A   Partly Cloudy
9:50 AM 53 °F 45 °F 66% 29.91 in 22 mi West 8.1 mph - -  
9:50 AM 51.8 °F 46.4 °F 82% 29.89 in 6.2 mi WNW 6.9 mph - N/A   Partly Cloudy
10:50 AM 55.4 °F 48.2 °F 77% 29.92 in 6.2 mi NW 8.1 mph - N/A   Partly Cloudy
11:20 AM 57.2 °F 48.2 °F 72% 29.92 in 6.2 mi NW 11.5 mph - N/A   Partly Cloudy
11:50 AM 57.2 °F 48.2 °F 72% 29.92 in 6.2 mi NW 9.2 mph - N/A   Partly Cloudy
12:20 PM 57.2 °F 48.2 °F 72% 29.92 in 6.2 mi NNW 9.2 mph - N/A   Scattered Clouds
12:50 PM 57 °F 45 °F 54% 29.94 in 22 mi WNW 8.1 mph - -   Mostly Cloudy
12:50 PM 57.2 °F 50.0 °F 77% 29.92 in 6.2 mi NW 8.1 mph - N/A   Scattered Clouds
1:20 PM 57.2 °F 50.0 °F 77% 29.95 in 6.2 mi NW 5.8 mph - N/A   Scattered Clouds
1:50 PM 59.0 °F 50.0 °F 72% 29.95 in 6.2 mi NW 9.2 mph - N/A   Scattered Clouds
2:20 PM 62.6 °F 53.6 °F 72% 29.95 in 6.2 mi NNW 9.2 mph - N/A   Scattered Clouds
2:50 PM 57.2 °F 50.0 °F 77% 29.95 in 6.2 mi NW 9.2 mph - N/A   Scattered Clouds
3:20 PM 59.0 °F 50.0 °F 72% 29.95 in 6.2 mi NNW 11.5 mph - N/A   Partly Cloudy
3:50 PM 57 °F 47 °F 60% 29.97 in 28 mi NNW 10.4 mph - -   Scattered Clouds
3:50 PM 59.0 °F 50.0 °F 72% 29.95 in 6.2 mi NNW 12.7 mph - N/A   Partly Cloudy
6:50 PM 51 °F 46 °F 78% 30.01 in 25 mi NW 4.6 mph - -  
9:50 PM 47 °F 42 °F 78% 30.06 in 16 mi East 2.3 mph - -   Scattered Clouds